TimeHST,TemperatureF,Dew PointF,Humidity,Sea Level PressureIn,VisibilityMPH,Wind Direction,Wind SpeedMPH,Gust SpeedMPH,PrecipitationIn,Events,Conditions,WindDirDegrees,DateUTC
12:58 AM,69.8,64.4,83,30.00,10.0,WNW,4.6,-,0.00,,Clear,290,2013-09-23 10:58:00
1:58 AM,68.0,64.4,88,29.99,10.0,WNW,4.6,-,N/A,,Clear,300,2013-09-23 11:58:00
2:58 AM,66.2,62.6,88,29.99,10.0,WNW,3.5,-,N/A,,Clear,300,2013-09-23 12:58:00
3:58 AM,68.0,64.4,88,29.98,10.0,WNW,4.6,-,N/A,,Clear,290,2013-09-23 13:58:00
4:58 AM,66.2,62.6,88,29.99,10.0,NW,4.6,-,N/A,,Partly Cloudy,310,2013-09-23 14:58:00
5:58 AM,66.2,62.6,88,30.00,10.0,West,3.5,-,N/A,,Partly Cloudy,270,2013-09-23 15:58:00
6:58 AM,69.8,64.4,83,29.99,10.0,Variable,2.3,-,N/A,,Partly Cloudy,0,2013-09-23 16:58:00
7:58 AM,75.2,66.2,73,30.01,10.0,ENE,3.5,-,N/A,,Mostly Cloudy,60,2013-09-23 17:58:00
8:58 AM,75.2,66.2,73,30.03,10.0,Variable,2.3,-,N/A,,Mostly Cloudy,0,2013-09-23 18:58:00
9:20 AM,77.0,66.2,69,30.05,10.0,SE,9.2,-,N/A,,Light Drizzle,130,2013-09-23 19:20:00
9:21 AM,77.0,66.2,69,30.05,10.0,ESE,9.2,-,N/A,,Mostly Cloudy,110,2013-09-23 19:21:00
9:40 AM,73.4,68.0,83,30.06,4.0,East,3.5,-,N/A,Rain,Light Rain,80,2013-09-23 19:40:00
9:41 AM,73.4,68.0,83,30.06,4.0,ENE,3.5,-,N/A,,Haze,70,2013-09-23 19:41:00
9:42 AM,73.4,68.0,83,30.06,4.0,ENE,3.5,-,N/A,,Drizzle,70,2013-09-23 19:42:00
9:43 AM,73.4,68.0,83,30.06,4.0,ENE,2.3,-,N/A,,Haze,60,2013-09-23 19:43:00
9:58 AM,73.4,69.8,88,30.03,10.0,NNW,2.3,-,0.02,,Mostly Cloudy,330,2013-09-23 19:58:00
10:28 AM,77.0,68.0,74,30.05,10.0,Variable,5.8,-,N/A,,Mostly Cloudy,0,2013-09-23 20:28:00
10:58 AM,78.8,68.0,69,30.01,10.0,NE,4.6,-,N/A,,Mostly Cloudy,40,2013-09-23 20:58:00
11:08 AM,78.8,68.0,69,30.04,10.0,East,8.1,-,N/A,,Scattered Clouds,80,2013-09-23 21:08:00
11:58 AM,80.6,68.0,65,29.99,10.0,NE,12.7,-,N/A,,Mostly Cloudy,50,2013-09-23 21:58:00
12:58 PM,82.4,66.2,58,29.97,10.0,ENE,10.4,-,N/A,,Partly Cloudy,60,2013-09-23 22:58:00
1:58 PM,82.4,66.2,58,29.95,10.0,East,12.7,-,N/A,,Partly Cloudy,90,2013-09-23 23:58:00
2:58 PM,82.4,62.6,51,29.94,10.0,East,13.8,-,N/A,,Clear,80,2013-09-24 00:58:00
3:58 PM,82.4,66.2,58,29.94,10.0,ENE,11.5,-,N/A,,Mostly Cloudy,70,2013-09-24 01:58:00
4:58 PM,78.8,66.2,65,29.94,10.0,East,8.1,-,N/A,,Scattered Clouds,80,2013-09-24 02:58:00
5:45 PM,77.0,66.2,69,29.99,6.0,ENE,6.9,-,N/A,,Light Drizzle,60,2013-09-24 03:45:00
5:46 PM,77.0,66.2,69,29.99,6.0,NE,5.8,-,N/A,,Haze,50,2013-09-24 03:46:00
5:58 PM,75.2,66.2,73,29.97,10.0,ENE,2.3,-,0.00,,Mostly Cloudy,70,2013-09-24 03:58:00
6:58 PM,75.2,66.2,73,29.98,10.0,NNE,4.6,-,N/A,,Mostly Cloudy,20,2013-09-24 04:58:00
7:58 PM,73.4,66.2,78,29.97,10.0,Variable,1.2,-,N/A,,Clear,0,2013-09-24 05:58:00
8:58 PM,75.2,66.2,73,29.98,10.0,NE,8.1,-,N/A,,Clear,40,2013-09-24 06:58:00
9:58 PM,75.2,66.2,73,29.98,10.0,ENE,9.2,-,N/A,,Scattered Clouds,60,2013-09-24 07:58:00
10:58 PM,75.2,66.2,73,29.98,10.0,East,4.6,-,N/A,,Partly Cloudy,80,2013-09-24 08:58:00
11:58 PM,73.4,64.4,73,29.97,10.0,Variable,2.3,-,N/A,,Partly Cloudy,0,2013-09-24 09:58:00